[[{"header":{"parameterUnit":"m.s-1","parameterCategory":1,"la1":30.2991,"la2":30.254,"lo1":-89.0895,"lo2":-89.0444,"dy":0.0017,"dx":0.0017,"nx":28,"ny":28,"refTime":"2025-04-25T09:00:00:Z","depth":0,"parameterNumber":2,"parameterNumberName":"U-component_of_WINDS"},"data":[0,0,0,0,0,0,0,0,0,0,0,0,0,0,0,0,0,0,0,0,0,0,0,0,0,0,0,0,0,0,0,0,0,0,0,0,0,0,0,0,0,0,0,0,0,0,0,0,0,0,0,0,0,0,0,0,0,0,-1.0768,-1.0768,0,-1.0781,-1.0782,-1.0782,-1.0765,-1.0765,-1.0764,-1.0764,-1.0779,-1.078,-1.0781,0,0,0,0,0,0,0,0,0,0,0,0,0,-1.0732,-1.0733,-1.0768,-1.0768,-1.0768,-1.0781,-1.0782,-1.0782,-1.0766,-1.0765,-1.0764,-1.0763,-1.0779,-1.078,-1.0781,0,0,0,0,0,0,0,0,0,0,0,0,0,-1.0747,-1.0733,-1.0768,-1.0762,-1.0761,-1.0781,-1.0782,-1.0782,-1.0766,-1.0765,-1.0764,-1.0763,-1.0778,-1.078,-1.0781,-1.0809,0,0,-1.0786,-1.0786,0,0,0,0,0,0,0,0,-1.0746,-1.0748,-1.0763,-1.0762,-1.0762,-1.0771,-1.0774,-1.0791,-1.0766,-1.0764,-1.0764,-1.0763,-1.0777,-1.0779,-1.0783,-1.0809,-1.081,-1.0786,-1.0787,-1.0787,-1.0788,0,0,0,0,0,0,0,-1.0745,-1.0747,-1.0773,-1.0763,-1.0762,-1.0759,-1.0761,-1.0777,-1.0776,-1.0764,-1.0763,-1.0765,-1.0777,-1.0782,-1.0784,-1.081,-1.0786,-1.0787,-1.0788,-1.0789,-1.086,-1.0861,0,0,0,0,0,0,-1.0744,-1.0747,-1.0773,-1.0774,-1.0751,-1.0761,-1.0762,-1.0769,-1.0775,-1.0776,-1.0766,-1.0764,-1.078,-1.0782,-1.0784,-1.0816,-1.0787,-1.0789,-1.079,-1.0859,-1.0861,-1.0862,0,0,0,0,0,0,-1.0743,-1.0747,-1.0773,-1.076,-1.0763,-1.0762,-1.077,-1.077,-1.0775,-1.0776,-1.0776,-1.0771,-1.0779,-1.0782,-1.0803,-1.0817,-1.0789,-1.0791,-1.0858,-1.086,-1.0861,-1.0881,0,0,0,0,0,0,-1.0742,-1.0746,-1.0756,-1.076,-1.0764,-1.079,-1.0771,-1.0771,-1.0777,-1.0775,-1.0781,-1.0781,-1.0779,-1.0801,-1.0804,-1.0818,-1.0792,-1.0857,-1.0859,-1.0861,-1.088,-1.0884,-1.0887,0,0,0,0,0,-1.0741,-1.0761,-1.0756,-1.076,-1.0775,-1.0791,-1.0793,-1.0789,-1.0778,-1.0788,-1.079,-1.0781,-1.0815,-1.0803,-1.0807,-1.0821,-1.0856,-1.0858,-1.0861,-1.0878,-1.0883,-1.0887,0,0,0,0,0,0,-1.0759,-1.0762,-1.0756,-1.0778,-1.0784,-1.0788,-1.08,-1.0794,-1.0804,-1.0801,-1.0797,-1.0798,-1.082,-1.0823,-1.081,-1.0849,-1.0834,-1.0837,-1.0846,-1.085,-1.0854,-1.0852,-1.0793,0,0,0,0,0,-1.0765,-1.0777,-1.0779,-1.0798,-1.0802,-1.0801,-1.0807,-1.0804,-1.081,-1.0813,-1.0816,-1.0823,-1.0835,-1.0843,-1.0855,-1.0881,-1.0882,-1.0893,-1.0897,-1.09,-1.0902,-1.0917,-1.0922,-1.0869,-1.0869,-1.0869,0,0,-1.0779,-1.0782,-1.0789,-1.0802,-1.0806,-1.0819,-1.0803,-1.0817,-1.0827,-1.0815,-1.0834,-1.0837,-1.0845,-1.0869,-1.0879,-1.0872,-1.0917,-1.0903,-1.0905,-1.0906,-1.092,-1.0925,-1.0929,-1.0871,-1.0871,-1.087,0,0,-1.0809,-1.0813,-1.0829,-1.0834,-1.0841,-1.084,-1.0844,-1.0849,-1.0851,-1.087,-1.0862,-1.0874,-1.0895,-1.0901,-1.0907,-1.0943,-1.0935,-1.0947,-1.0966,-1.098,-1.0984,-1.0988,-1.1,-1.1005,-1.095,-1.095,-1.095,0,-1.0825,-1.0843,-1.0839,-1.0853,-1.086,-1.085,-1.0867,-1.0873,-1.0883,-1.0888,-1.088,-1.0907,-1.0911,-1.0936,-1.0945,-1.0951,-1.0956,-1.0945,-1.0984,-1.0987,-1.0991,-1.1003,-1.1007,-1.0951,-1.0951,-1.0951,-1.095,0,-1.0862,-1.0875,-1.0888,-1.0898,-1.0906,-1.0922,-1.0921,-1.093,-1.0926,-1.0927,-1.0948,-1.0954,-1.0966,-1.0972,-1.0969,-1.0998,-1.0993,-1.0984,-1.0969,-1.0997,-1.1008,-1.1013,-1.0953,-1.0952,-1.0952,-1.0952,0,0,-1.0902,-1.091,-1.0915,-1.092,-1.0928,-1.0938,-1.0955,-1.0967,-1.0974,-1.0983,-1.0997,-1.1016,-1.1008,-1.1015,-1.1013,-1.1026,-1.1054,-1.1016,-1.1016,-1.1022,-1.1086,-1.1091,-1.1096,-1.105,-1.1051,-1.1051,-1.1085,0,-1.0932,-1.0959,-1.0957,-1.0983,-1.0995,-1.0988,-1.1002,-1.1009,-1.1011,-1.1023,-1.1025,-1.1039,-1.1028,-1.1032,-1.1045,-1.1048,-1.1066,-1.1045,-1.1063,-1.1064,-1.106,-1.1102,-1.1108,-1.1139,-1.1089,-1.109,-1.1091,0,-1.0971,-1.098,-1.1007,-1.1014,-1.1019,-1.1032,-1.1043,-1.1055,-1.1063,-1.1064,-1.1072,-1.1068,-1.1086,-1.1072,-1.1097,-1.1082,-1.109,-1.1093,-1.1094,-1.1095,-1.1078,-1.1103,-1.1149,-1.1153,-1.1097,-1.1097,-1.1096,0,-1.0997,-1.1016,-1.1035,-1.104,-1.1048,-1.1057,-1.1062,-1.1069,-1.1077,-1.1088,-1.1093,-1.1106,-1.1113,-1.1124,-1.1124,-1.1113,-1.1149,-1.1135,-1.1151,-1.1151,-1.1157,-1.1156,-1.1204,-1.1164,-1.1164,-1.1164,-1.1164,0,-1.103,-1.1047,-1.1047,-1.1058,-1.1078,-1.1076,-1.1095,-1.1099,-1.1106,-1.1119,-1.1114,-1.1126,-1.1126,-1.1139,-1.114,-1.1161,-1.1164,-1.1166,-1.1165,-1.1165,-1.1165,-1.1169,-1.1167,-1.1165,-1.1165,-1.1164,-1.1164,0,-1.1061,-1.1062,-1.1082,-1.1089,-1.1091,-1.1105,-1.1111,-1.1123,-1.1125,-1.1142,-1.1146,-1.1149,-1.1165,-1.1166,-1.1184,-1.1185,-1.121,-1.1208,-1.1207,-1.1206,-1.1222,-1.122,-1.1272,-1.1279,-1.1235,-1.1236,-1.1236,0,-1.1082,-1.1095,-1.1103,-1.1111,-1.1116,-1.1129,-1.1137,-1.1136,-1.1145,-1.1157,-1.1167,-1.1182,-1.1193,-1.1219,-1.1223,-1.1238,-1.1235,-1.1253,-1.1237,-1.1237,-1.1235,-1.1234,-1.1235,-1.1256,-1.1256,-1.1256,-1.1257,0,-1.1118,-1.1118,-1.113,-1.1142,-1.1151,-1.1161,-1.117,-1.1177,-1.1178,-1.1188,-1.1204,-1.1213,-1.1231,-1.1246,-1.1261,-1.1266,-1.1262,-1.1262,-1.1266,-1.1266,-1.1264,-1.1265,-1.1214,-1.126,-1.126,-1.126,-1.126,-1.1259,-1.1145,-1.1156,-1.1164,-1.1177,-1.1184,-1.1193,-1.1204,-1.1208,-1.122,-1.1235,-1.1234,-1.1252,-1.1261,-1.128,-1.1287,-1.1301,-1.1295,-1.1301,-1.1303,-1.1304,-1.1306,-1.1263,-1.1304,-1.1304,-1.1303,-1.1303,-1.1303,0,-1.1181,-1.1186,-1.1198,-1.121,-1.1221,-1.1216,-1.1226,-1.1236,-1.1251,-1.126,-1.1272,-1.129,-1.1305,-1.1312,-1.1327,-1.1337,-1.1335,-1.1341,-1.134,-1.1341,-1.131,-1.1304,-1.1342,-1.1342,-1.1342,-1.1342,-1.1342,-1.1342,-1.12,-1.1219,-1.1221,-1.1243,-1.1249,-1.1265,-1.1271,-1.128,-1.1287,-1.1307,-1.132,-1.1324,-1.1332,-1.1348,-1.1362,-1.1364,-1.137,-1.1376,-1.1377,-1.1347,-1.1343,-1.1339,-1.1334,-1.1377,-1.1377,-1.1406,-1.1407,-1.1407]},{"header":{"parameterUnit":"m.s-1","parameterCategory":1,"la1":30.2991,"la2":30.254,"lo1":-89.0895,"lo2":-89.0444,"dy":0.0017,"dx":0.0017,"nx":28,"ny":28,"refTime":"2025-04-25T09:00:00:Z","depth":0,"parameterNumber":3,"parameterNumberName":"V-component_of_WINDS"},"data":[0,0,0,0,0,0,0,0,0,0,0,0,0,0,0,0,0,0,0,0,0,0,0,0,0,0,0,0,0,0,0,0,0,0,0,0,0,0,0,0,0,0,0,0,0,0,0,0,0,0,0,0,0,0,0,0,0,0,3.4437,3.4438,0,3.4544,3.4545,3.4546,3.4612,3.4613,3.4613,3.4613,3.472,3.4722,3.4725,0,0,0,0,0,0,0,0,0,0,0,0,0,3.4287,3.4289,3.4437,3.4438,3.444,3.4544,3.4545,3.4547,3.4612,3.4613,3.4613,3.4614,3.4719,3.4722,3.4725,0,0,0,0,0,0,0,0,0,0,0,0,0,3.4369,3.429,3.4437,3.4485,3.449,3.4544,3.4545,3.4547,3.4612,3.4613,3.4613,3.4614,3.4718,3.4722,3.4725,3.4738,0,0,3.4737,3.4738,0,0,0,0,0,0,0,0,3.4364,3.4374,3.4477,3.4482,3.4488,3.4566,3.4531,3.4611,3.4612,3.4566,3.4613,3.4614,3.4668,3.4676,3.4695,3.4743,3.4747,3.4737,3.4739,3.4741,3.4742,0,0,0,0,0,0,0,3.4358,3.437,3.4479,3.4478,3.4485,3.45,3.4513,3.4547,3.4612,3.457,3.4575,3.4587,3.4671,3.4691,3.4697,3.4749,3.4737,3.474,3.4743,3.4744,3.4813,3.4813,0,0,0,0,0,0,3.4345,3.4365,3.4476,3.4482,3.4426,3.4503,3.4516,3.454,3.4612,3.4624,3.4586,3.459,3.4684,3.4693,3.4701,3.4722,3.4741,3.4744,3.4747,3.4814,3.4813,3.4813,0,0,0,0,0,0,3.4342,3.4354,3.4472,3.4425,3.4441,3.4505,3.4531,3.4542,3.4562,3.4625,3.4636,3.4595,3.4685,3.4696,3.4729,3.4727,3.4746,3.475,3.4814,3.4814,3.4813,3.4762,0,0,0,0,0,0,3.4337,3.4353,3.4359,3.4425,3.4443,3.4498,3.4531,3.4544,3.4568,3.4574,3.4636,3.4646,3.4686,3.4723,3.4732,3.4732,3.4752,3.4815,3.4814,3.4813,3.4765,3.476,3.4756,0,0,0,0,0,3.4331,3.434,3.4359,3.4372,3.4452,3.4498,3.4508,3.4555,3.4568,3.4575,3.4615,3.4644,3.4725,3.4726,3.4737,3.4738,3.4815,3.4814,3.4813,3.4767,3.4761,3.4757,0,0,0,0,0,0,3.4271,3.4349,3.4371,3.4401,3.4442,3.4509,3.4518,3.4547,3.4585,3.4588,3.4643,3.4656,3.4684,3.4714,3.4713,3.4754,3.4773,3.4775,3.4734,3.4729,3.4725,3.4718,3.4756,0,0,0,0,0,3.4261,3.4292,3.4358,3.4378,3.4398,3.4454,3.4476,3.4508,3.4552,3.457,3.4613,3.4654,3.4688,3.471,3.4745,3.4768,3.4783,3.4775,3.477,3.4767,3.4768,3.4783,3.478,3.481,3.481,3.481,0,0,3.4241,3.4288,3.4304,3.4367,3.4403,3.4433,3.4468,3.4499,3.4522,3.4574,3.4609,3.4641,3.469,3.4718,3.4733,3.4744,3.4763,3.4766,3.4762,3.4765,3.4782,3.4779,3.4776,3.4809,3.4809,3.4809,0,0,3.4221,3.4259,3.428,3.4315,3.4369,3.4407,3.4412,3.4474,3.4498,3.4533,3.4573,3.46,3.4658,3.4693,3.4717,3.4709,3.4738,3.4719,3.4698,3.4712,3.471,3.4708,3.4706,3.4705,3.4719,3.4719,3.4719,0,3.419,3.4238,3.4287,3.4316,3.4343,3.4392,3.4414,3.4445,3.4507,3.4524,3.4536,3.4611,3.4647,3.4685,3.4683,3.4701,3.4708,3.4713,3.4706,3.4705,3.4704,3.4703,3.4702,3.4716,3.4717,3.4717,3.4717,0,3.4197,3.423,3.424,3.4301,3.4328,3.4353,3.4406,3.4427,3.4456,3.4492,3.4527,3.4573,3.4619,3.4629,3.4657,3.4671,3.4676,3.4696,3.4717,3.4698,3.4698,3.4698,3.4713,3.4714,3.4714,3.4715,0,0,3.4144,3.4231,3.4234,3.4262,3.4325,3.4351,3.4377,3.4423,3.4441,3.4481,3.4506,3.4554,3.4573,3.4601,3.4633,3.4645,3.4637,3.4664,3.4666,3.4659,3.4655,3.4641,3.464,3.4656,3.4656,3.4656,3.4652,0,3.4134,3.4186,3.4231,3.4266,3.4298,3.4344,3.4367,3.4408,3.4441,3.4472,3.4508,3.4542,3.4564,3.4582,3.4596,3.4635,3.4638,3.4636,3.4679,3.468,3.4667,3.464,3.4625,3.4619,3.4652,3.4652,3.4652,0,3.4131,3.4171,3.4209,3.427,3.4284,3.4305,3.4351,3.4379,3.4425,3.4449,3.448,3.4514,3.4543,3.456,3.4601,3.4599,3.4619,3.464,3.4641,3.4649,3.4666,3.4648,3.4618,3.4618,3.4652,3.4652,3.4652,0,3.409,3.4153,3.4185,3.4207,3.4278,3.4291,3.432,3.4368,3.4392,3.4431,3.4448,3.4489,3.4512,3.4543,3.4587,3.4595,3.4624,3.4644,3.4645,3.4644,3.4651,3.465,3.4625,3.466,3.466,3.466,3.466,0,3.4076,3.4098,3.4168,3.4187,3.4213,3.4264,3.4288,3.4321,3.4363,3.4389,3.443,3.4454,3.451,3.454,3.4574,3.4603,3.4613,3.4633,3.4642,3.463,3.4628,3.4645,3.4648,3.466,3.466,3.466,3.466,0,3.4036,3.4083,3.4121,3.4184,3.4201,3.4217,3.4271,3.4292,3.4327,3.436,3.4371,3.4426,3.4464,3.451,3.4562,3.4585,3.4611,3.4624,3.4596,3.4602,3.4601,3.4601,3.4588,3.4589,3.4621,3.4621,3.462,0,3.4025,3.4043,3.4109,3.413,3.4159,3.4192,3.4218,3.4267,3.4292,3.4346,3.436,3.4401,3.4437,3.4494,3.4538,3.4578,3.4593,3.4586,3.46,3.4587,3.4595,3.4594,3.4597,3.4583,3.4582,3.4582,3.4581,0,3.4001,3.4023,3.4059,3.4104,3.4133,3.417,3.4209,3.4223,3.4281,3.4306,3.4346,3.4373,3.4427,3.4467,3.4512,3.4542,3.4571,3.4576,3.4579,3.4569,3.4552,3.4563,3.4589,3.4577,3.4578,3.4578,3.4578,3.4578,3.3976,3.3995,3.4044,3.4083,3.4117,3.4152,3.4175,3.4214,3.4248,3.4296,3.4323,3.4362,3.4407,3.4471,3.4499,3.453,3.4541,3.4544,3.4545,3.4546,3.4543,3.4546,3.4538,3.4538,3.4538,3.4539,3.4539,0,3.3956,3.399,3.4025,3.4078,3.4108,3.4134,3.4177,3.4201,3.4235,3.4275,3.431,3.4355,3.4394,3.4441,3.4483,3.4498,3.4513,3.4507,3.4508,3.4514,3.453,3.4525,3.4495,3.4495,3.4495,3.4495,3.4495,3.4495,3.3949,3.3983,3.4011,3.4061,3.4095,3.4135,3.4157,3.419,3.4222,3.4272,3.4305,3.4335,3.4378,3.4423,3.446,3.4473,3.4487,3.4478,3.4495,3.4509,3.4513,3.4517,3.4512,3.448,3.448,3.4477,3.4476,3.4476]}]]